Погода в Москве

Погода в Москве : погода сейчас, прогноз погоды и архив. Всё, что Вы хотите узнать о погоде в Москве!

Хотите узнать прогноз погоды в Москве? Тогда Вам сюда: Погода в Москве

Поиск расширенной информации на нашем сайте:

Полезная информация:

Другие новости

Новости СМИ2

Главная страница сайта

Новости сайта

03.07.2017

Напоминаем, что на нашем специализированном сайте Метеоцентр.Азия вы можете получить высокодетализированные автоматические прогнозы погоды по пунктам России, СНГ и мира в авиационном формате (включающие направление и скорость ветра, видимость, явления погоды, количество и форму облачности, нижнюю и верхнюю границу облачности).

Рекомендуем:

Погода в Москве - сегодня

Время (UTC), дата Ветер
(°,м/с) 
Видим.   Явления Облачность Т
(°С)
Тd
(°С)
f(%) Тe
(°С)
Pmin
(гПа)
dP
(гПа)
Po
(мм)
O2
(г/м3)
Тmin Tmax R s Состояние
почвы
06 15.08.19 180 (Ю) 10 км  {гроза, ливн. осадки}  3/0 верхняя 
[Ci fib]
+22.8 +17.3 71 +36  1007  -0.9  742  272  +15.4      мокрая 
09 15.08.19 310 (СЗ) 10 км    8/8 600 м 
[Cu Sc]
+20.5 +15.8 74 +31  1009.5  2.3  743  275           
12 15.08.19 320 (СЗ) 10 км    8/8 600 м 
[Cu Sc]
+19.8 +12.5 63 +26  1012.3  2.7  746  278           
15 15.08.19 320 (СЗ) 10 км    8/5 600 м средняя 
[Sc|Ac trans]
+19.4 +12 62 +24  1013.3  746  278           
18 15.08.19 350 (С) н/о    8/3 600 м верхняя 
[Sc diur, vesp|Cs]
+17.7 +12.5 72 +24  1014.2  0.8  747  280    +24.5       
21 15.08.19 тихо ()   н/о  дымка  8/8 600 м 
[Sc]
+14.8 +12.8 88 +20  1015.3  0.9  747  283           
00 16.08.19 360 (С) н/о  дымка  10/10 600 м 
[Sc]
+15.2 +12.5 84 +22  1015.8  0.6  748  283           
03 16.08.19 020 (С) 10 км    10/10 600 м 
[Sc]
+14.9 +12.1 83 +20  1015.4  -0.5  747  283  +14.6         
06 16.08.19 040 (СВ) 4000 м  слаб. дождь  10/10 600 м 
[Sc]
+15.5 +12.2 81 +21  1015.2  -0.2  747  283  +14.6    0.0    мокрая 
09 16.08.19 040 (СВ) 10 км  {дождь}  10/4 600 м средняя 
[Sc|As op]
+16.8 +11.7 72 +22  1015.1  747  281           
12 16.08.19 070 (В) 10 км  {дождь}  9/8 600 м средняя 
[Cu Sc|Ac As]
+18.7 +10.3 58 +22  1014.8  -0.2  747  280           
15 16.08.19 040 (СВ) 10 км    10/8 600 м средняя 
[Sc|Ac und]
+18.4 +9.7 57 +21  1014.5  -0.2  747  280      0.0     
18 16.08.19 040 (СВ) н/о  {ливн. осадки}  10/10 600 м 
[Sc]
+16.9 +10 64 +19  1015.2  0.6  747  282    +18.9  0.0     
21 16.08.19 040 (СВ) н/о    10/10 600 м 
[Sc]
+15.8 +10 68 +18  1015.3  747  283           
00 17.08.19 030 (СВ) н/о    10/10 600 м 
[Sc]
+14.3 +10.1 76 +16  1015  -0.4  747  284           
03 17.08.19 030 (СВ) 10 км    8/0 
[Sc]
+13.9 +10.6 80 +17  1014.6  -0.4  747  284  +13.8    0.0     
06 17.08.19 040 (СВ) 10 км    10/10 600 м 
[Sc]
+15.9 +10.7 71 +19  1014.6  0.1  747  282  +13.8        влажная 
09 17.08.19 030 (СВ) 10 км  в посл. час дождь  10/10 600 м 
[Sc]
+16.3 +13 81 +23  1014  -0.5  747  281           
12 17.08.19 030 (СВ) 10 км  {дождь}  10/10 600 м 
[Sc]
+16.8 +13.7 82 +25  1014.1  0.1  747  281           
15 17.08.19 060 (СВ) 10 км    10/10 600 м 
[Sc]
+17.3 +13.6 79 +24  1013  -1  746  280      0.1     
18 17.08.19 060 (СВ) н/о  дымка  10/10 300 м 
[Frnb]
+15.8 +13.8 88 +24  1012.2  -0.9  745  281    +17.4  0.1     
21 17.08.19 010 (С) н/о  слаб. ливневой дождь  10/10 300 м кучево-дожд. 
[Cb cap]
+15 +14 94 +23  1009.7  -2.5  743  281           
00 18.08.19 040 (СВ) н/о  ливневой дождь  10/10 300 м кучево-дожд. 
[Cb cap]
+15.9 +15.3 96 +26  1008.3  -1.3  742  279           
03 18.08.19 090 (В) 4000 м  слаб. ливневой дождь  10/10 300 м кучево-дожд. 
[Cb cap]
+17.2 +16.2 94 +30  1007.4  -0.7  742  278  +14.9       
06 18.08.19 130 (ЮВ) 1000 м  ливневой дождь  10/10 300 м кучево-дожд. 
[Cb cap]
+17.8 +16.8 94 +31  1007.5  0.1  742  277  +14.9      мокрая 
Время (UTC), дата Ветер
(°,м/с) 
Видим.   Явления Облачность Т
(°С)
Тd
(°С)
f(%) Тe
(°С)
Pmin
(гПа)
dP
(гПа)
Po
(мм)
O2
(г/м3)
Тmin Tmax R s Состояние
почвы

Для получения пояснительной информации подведите курсор к названию столбца.

ПОГОДА в Москве - архив

Всё, что Вы хотите узнать о погоде в Москве - удобно и подробно!

Выберите нужную дату (начиная с 1 января 2018* года) и нажмите кнопку "Найти".
Будут отображены архивные сводки погоды по пункту Москва, начиная с указанной даты.


Отображать данные в формате CSV (для использования в таблицах Excel)


Внимание! Наш архив погоды предназначен исключительно для личного некоммерческого использования в познавательных целях. Если Вам необходимы официальные справки о состоянии погоды (для производственных, юридических, коммерческих и т.п. целей), обращайтесь в органы Росгидромета.

*Примечание: данная дата относится к архиву по метеостанциям СССР (Россия, СНГ, Балтия).
Архив по метеостанциям Зарубежной Европы и Азии (кроме Китая) хранится 10 дней, по другим регионам земного шара (Китай, Африка, Америка, Австралия, Океания) - 1 день.

Москва - район местоположения метеостанции


Название, широта, долгота, высота метеостанции:
Москва (ВВЦ) 55.8°ш. 37.6°д. 156 м над ур. моря [Российская Федерация]

Дополнительная информация

В oтличие oт бoльшинства пoгoдных сайтoв мы публикуем пoдрoбную метеoинфoрмацию в детальнoм прoфессиoнальнoм фoрмате.

Характеристики температуры и влажнoсти вoздуха измеряются на высoте 2 м в тени вдали oт зданий и деревьев.
Скoрoсть ветра измеряется на высoте 10 м (на урoвне рoста челoвека скoрoсть ветра ниже в 1.5-2 раза). Если метеoстанция нахoдится в гoрoде или в лесу, тo скoрoсть ветра занижена на 2-4 м/с пo сравнению с oткрытым местoм. Скoрoсть ветра над акватoриями крупных рек и oзёр, а также на вершинах хoлмoв на 2-5 м/с выше, чем в oбычных услoвиях.
Атмoсфернoе давление в разных тoчках местнoсти мoжет значительнo oтличаться oт давления на метеoстанции, в зависимoсти oт услoвий рельефа (при пoдъёме на 10 м давление пoнижается примернo на 1 мм рт.ст.).